Simultaneous Nadir Overpasses (SNOs) Predictions

Prediction of SNOs between AQUA and METOP-B Satellite Orbit:

Table of predicted SNOs for the next 14.0 days since TLE Epoch: 12/12/2020
Index Date (AQUA) Time (AQUA) Lat,Lon (AQUA) SZA (AQUA ) Date (METOP-B) Time (METOP-B) Lat,Lon (METOP-B) SZA (METOP-B ) Distance(km) Time Diff (sec)
1 12/13/2020 17:46:41 -73.80, 87.59 83.05 12/13/2020 17:46:22 -73.78, 87.57 83.06 1.43 19
2 12/13/2020 18:36:10 73.85,-104.90 97.01 12/13/2020 18:37:01 73.85,-104.94 97.01 1.40 51
3 12/16/2020 12:31:22 73.36, -12.69 96.65 12/16/2020 12:30:13 73.30, -14.46 96.63 56.87 69
4 12/16/2020 13:20:56 -73.82, 153.97 82.88 12/16/2020 13:20:44 -73.82, 154.06 82.88 2.75 12
5 12/16/2020 14:10:25 73.88, -38.52 97.19 12/16/2020 14:11:23 73.88, -38.46 97.19 2.05 58
6 12/19/2020 08:05:41 73.66, 53.12 97.04 12/19/2020 08:04:29 73.58, 52.58 96.98 18.96 72
7 12/19/2020 08:55:09 -73.80,-139.55 82.81 12/19/2020 08:55:06 -73.80,-139.58 82.81 0.98 3
8 12/19/2020 09:44:38 73.87, 27.94 97.26 12/19/2020 09:45:45 73.86, 27.90 97.25 1.68 67
9 12/22/2020 03:39:57 73.76, 119.34 97.17 12/22/2020 03:38:48 73.76, 119.40 97.17 2.11 69
10 12/22/2020 04:29:24 -73.85, -73.20 82.75 12/22/2020 04:29:28 -73.83, -73.10 82.77 3.74 4
11 12/22/2020 05:18:53 73.92, 94.28 97.33 12/22/2020 05:20:06 73.93, 94.49 97.34 6.81 73
12 12/24/2020 23:14:11 73.77,-174.23 97.14 12/24/2020 23:13:10 73.78,-174.13 97.16 3.22 61
13 12/25/2020 00:03:37 -73.79, -6.64 82.84 12/25/2020 00:03:51 -73.81, -6.74 82.83 3.45 14



Historial Predications of SNOs between AQUA and METOP-B
